Probability
0 0 0 0 0 0 0 0 0 0 0 0 0 0 0 0 0 0 0 0 0 0 0 0 0 0 0 0 0 0 0 0 0 0 0 0 0 0 0 0 0 0 0 0
0 0 0 0 0 0 0 0 0 0 0 0 0 0 0 0 0 0 0 0 0 0 0 0 0 0 0 0 0 0 0 0 0 0 0 0 0 0 0 0 0 0 0 0
0 0 0 0 0 0 0 0 0 0 0 0 0 0 0 0 0 0 0 0 0 0 0 0 0 0 0 0 0 0 0 0 0 0 0 0 0 0 0 0 0 0 0 0
0 0 0 0 0 0 0 0 0 0 0 0 0 0 0 0 0 0 0 0 0 0 0 0 0 0 0 0 0 0 0 0 0 0 0 0 0 0 0 0 0 0 0 0
0 0 0 0 0 0 0 0 0 0 0 0 0 0 0 0 0 0 0 0 0 0 0 0 0 0 0 0 0 0 0 0 0 0 0 0 0 0 0 0 0 0 0 0
0 0 0 0 0 0 0 0 0 0 0 0 0 0 0 0 0 0 0 0 0 0 0 0 0 0 0 0 0 0 0 0 0 0 0 0 0 0 0 0 0 0 0 0
0 0 0 0 0 0 0 0 0 0 0 0 0 0 0 0 0 0 0 0 0 0 0 0 0 0 0 0 0 0 0 0 0 0 0 0 0 0 0 0 0 0 0 0
0 0 0 0 0 0 0 0 0 0 0 0 0 0 0 0 0 0 0 0 0 0 0 0 0 0 0 0 0 0 0 0 0 0 0 0 0 0 0 0 0 0 0 0
0 0 0 0 0 0 0 0 0 0 0 0 0 0 0 0 0 0 0 0 0 0 0 0 0 0 0 0 0 0 0 0 0 0 0 0 0 0 0 0 0 0 0 0
0 0 0 0 0 0 0 0 0 0 0 0 0 0 0 0 0 0 0 0 0 0 0 0 0 0 0 0 0 0 0 0 0 0 0 0 0 0 0 0 0 0 0 0
0 0 0 0 0 0 0 0 0 0 0 0 0 0 0 0 0 0 0 0 0 0 0 0 0 0 0 0 0 0 0 0 0 0 0 0 0 0 0 0 0 0 0 0
0 0 0 0 0 0 0 0 0 0 0 0 0 0 0 0 0 0 0 0 0 0 0 0 0 0 0 0 0 0 0 0 0 0 0 0 0 0 0 0 0 0 0 0
0 0 0 0 0 0 0 0 0 0 0 0 0 0 0 0 0 0 0 0 0 0 0 0 0 0 0 0 0 0 0 0 0 0 0 0 0 0 0 0 0 0 0 0
0 0 0 0 0 0 0 0 0 0 0 0 0 0 0 0 0 0 0 0 0 0 0 0 0 0 0 0 0 0 0 0 0 0 0 0 0 0 0 0 0 0 0 0
0 0 0 0 0 0 0 0 0 0 0 0 0 0 0 0 0 0 0 0 0 0 0 0 0 0 0 0 0 0 0 0 0 0 0 0 0 0 0 0 0 0 0 0
0 0 0 0 0 0 0 0 0 0 0 0 0 0 0 0 0 0 0 0 0 0 0 0 0 0 0 0 0 0 0 0 0 0 0 0 0 0 0 0 0 0 0 0
0 0 0 0 0 0 0 0 0 0 0 0 0 0 0 0 0 0 0 0 0 0 0 0 0 0 0 0 0 0 0 0 0 0 0 0 0 0 0 0 0 0 0 0
0 0 0 0 0 0 0 0 0 0 0 0 0 0 0 0 0 0 0 0 0 0 0 0 0 0 0 0 0 0 0 0 0 0 0 0 0 0 0 0 0 0 0 0
0 0 0 0 0 0 0 0 0 0 0 0 0 0 0 0 0 0 0 0 0 0 0 0 0 0 0 0 0 0 0 0 0 0 0 0 0 0 0 0 0 0 0 0
0 0 0 0 0 0 0 0 0 0 0 0 0 0 0 0 0 0 0 0 0 0 0 0 0 0 0 0 0 0 0 0 0 0 0 0 0 0 0 0 0 0 0 0
0 0 0 0 0 0 0 0 0 0 0 0 0 0 0 0 0 0 0 0 0 0 0 0 0 0 0 0 0 0 0 0 0 0 0 0 0 0 0 0 0 0 0 0
0 0 0 0 0 0 0 0 0 0 0 0 0 0 0 0 0 0 0 0 0 0 0 0 0 0 0 0 0 0 0 0 0 0 0 0 0 0 0 0 0 0 0 0
0 0 0 0 0 0 0 0 0 0 0 0 0 0 0 0 0 0 0 0 0 0 0 0 0 0 0 0 0 0 0 0 0 0 0 0 0 0 0 0 0 0 0 0
0 0 0 0 0 0 0 0 0 0 0 0 0 0 0 0 0 0 0 0 0 0 0 0 0 0 0 0 0 0 0 0 0 0 0 0 0 0 0 0 0 0 0 0
0 0 0 0 0 0 0 0 0 0 0 0 0 0 0 0 0 0 0 0 0 0 0 0 0 0 0 0 0 0 0 0 0 0 0 0 0 0 0 0 0 0 0 0
0 0 0 0 0 0 0 0 0 0 0 0 0 0 0 0 0 0 0 0 0 0 0 0 0 0 0 0 0 0 0 0 0 0 0 0 0 0 0 0 0 0 0 0
Height
5699 5700 5700 5701 5702 5704 5705 5708 5710 5712 5715 5718 5720 5722 5725 5727 5730 5732 5734 5736 5738 5739 5741 5743 5744 5746 5747 5748 5749 5750 5750 5751 5751 5751 5751 5751 5751 5751 5750 5750 5750 5751 5751 5752
5700 5700 5700 5700 5701 5702 5704 5706 5707 5710 5712 5714 5717 5719 5722 5723 5726 5728 5730 5731 5733 5734 5736 5738 5739 5740 5741 5742 5743 5743 5744 5744 5744 5744 5744 5743 5743 5743 5742 5742 5741 5741 5741 5742
5699 5700 5700 5700 5701 5701 5703 5704 5706 5708 5710 5711 5714 5716 5718 5720 5721 5724 5725 5726 5728 5730 5731 5732 5733 5734 5735 5736 5736 5737 5737 5737 5737 5736 5736 5735 5735 5734 5734 5733 5732 5731 5731 5732
5699 5699 5699 5700 5700 5700 5701 5702 5704 5705 5707 5708 5711 5712 5715 5716 5718 5719 5721 5722 5723 5725 5726 5727 5728 5729 5729 5730 5730 5730 5730 5729 5729 5728 5727 5727 5726 5726 5725 5724 5723 5722 5722 5722
5699 5699 5699 5699 5700 5699 5700 5701 5702 5703 5703 5705 5707 5708 5712 5712 5714 5715 5716 5717 5718 5719 5720 5721 5722 5722 5723 5723 5723 5722 5722 5721 5721 5720 5719 5718 5717 5716 5715 5714 5714 5713 5713 5712
5699 5698 5698 5698 5698 5698 5699 5699 5700 5700 5701 5703 5704 5704 5707 5708 5709 5710 5711 5712 5713 5714 5714 5715 5715 5716 5716 5716 5715 5715 5714 5713 5712 5711 5710 5709 5708 5707 5706 5705 5704 5703 5703 5703
5698 5697 5697 5697 5697 5697 5697 5698 5698 5697 5698 5699 5700 5700 5703 5703 5704 5705 5706 5706 5707 5708 5708 5708 5709 5709 5708 5708 5708 5707 5706 5705 5704 5703 5701 5700 5698 5697 5696 5695 5694 5693 5693 5692
5696 5696 5695 5695 5695 5694 5694 5695 5696 5695 5695 5696 5696 5696 5699 5698 5698 5699 5699 5700 5701 5701 5702 5702 5701 5701 5701 5700 5700 5699 5698 5697 5696 5694 5693 5691 5689 5687 5686 5684 5684 5683 5682 5682
5694 5694 5693 5692 5692 5692 5691 5691 5692 5692 5691 5691 5692 5693 5694 5693 5693 5693 5693 5694 5694 5694 5694 5694 5694 5694 5693 5692 5691 5690 5689 5688 5687 5685 5683 5682 5680 5678 5676 5675 5674 5673 5672 5672
5691 5691 5690 5690 5689 5689 5689 5688 5688 5688 5687 5687 5687 5688 5688 5688 5687 5687 5687 5687 5687 5687 5687 5687 5686 5686 5685 5684 5683 5682 5681 5679 5678 5676 5674 5672 5670 5668 5667 5665 5664 5663 5662 5661
5688 5688 5687 5686 5686 5685 5685 5685 5684 5683 5683 5682 5682 5685 5683 5682 5681 5681 5681 5680 5680 5680 5679 5679 5678 5677 5676 5675 5674 5673 5672 5670 5669 5667 5665 5663 5661 5659 5658 5656 5655 5654 5652 5651
5684 5684 5683 5683 5682 5681 5681 5680 5680 5680 5679 5677 5677 5681 5678 5676 5675 5674 5674 5674 5673 5672 5672 5671 5670 5669 5668 5666 5665 5664 5662 5661 5659 5658 5656 5654 5652 5650 5648 5646 5645 5644 5642 5641
5680 5680 5679 5679 5680 5678 5676 5675 5674 5674 5673 5672 5671 5675 5672 5670 5668 5668 5667 5667 5666 5665 5664 5663 5662 5660 5659 5657 5656 5654 5653 5651 5650 5648 5646 5644 5642 5640 5639 5637 5635 5633 5632 5630
5676 5675 5675 5675 5673 5671 5671 5671 5669 5668 5667 5667 5667 5667 5666 5663 5662 5661 5660 5659 5658 5657 5656 5654 5653 5651 5650 5648 5646 5645 5643 5641 5639 5638 5636 5634 5632 5630 5629 5627 5625 5623 5622 5620
5670 5670 5669 5669 5667 5666 5666 5665 5664 5662 5661 5660 5661 5659 5659 5656 5655 5654 5653 5652 5650 5649 5647 5646 5644 5642 5640 5638 5637 5635 5633 5631 5629 5628 5626 5624 5622 5620 5618 5617 5615 5613 5612 5610
5665 5664 5663 5663 5662 5660 5659 5660 5658 5656 5655 5653 5652 5652 5651 5649 5647 5646 5645 5643 5642 5640 5638 5637 5635 5633 5631 5629 5627 5625 5623 5621 5619 5617 5615 5613 5612 5610 5608 5607 5605 5604 5603 5601
5659 5658 5656 5656 5655 5653 5653 5653 5651 5650 5648 5646 5645 5646 5643 5641 5639 5638 5636 5635 5633 5631 5629 5627 5625 5623 5621 5619 5617 5615 5613 5611 5609 5607 5605 5603 5601 5600 5599 5597 5596 5595 5593 5591
5652 5650 5648 5647 5647 5645 5649 5645 5643 5641 5640 5638 5637 5636 5634 5632 5631 5629 5627 5626 5624 5622 5620 5618 5616 5614 5612 5609 5607 5605 5603 5601 5599 5597 5595 5593 5592 5591 5589 5588 5587 5585 5584 5582
5645 5643 5641 5639 5637 5637 5639 5637 5634 5632 5631 5630 5628 5626 5625 5623 5622 5621 5618 5616 5614 5612 5610 5608 5606 5604 5602 5599 5597 5595 5593 5591 5589 5587 5585 5584 5582 5581 5580 5579 5577 5576 5575 5573
5636 5634 5633 5631 5629 5628 5631 5628 5625 5624 5623 5621 5619 5617 5615 5614 5613 5613 5609 5607 5605 5602 5600 5598 5596 5594 5592 5589 5587 5585 5583 5581 5579 5577 5576 5574 5573 5572 5571 5570 5568 5567 5566 5564
5627 5626 5624 5622 5619 5619 5622 5619 5617 5616 5615 5611 5609 5607 5606 5604 5603 5602 5599 5597 5594 5592 5590 5588 5586 5584 5582 5579 5577 5576 5574 5572 5570 5568 5567 5565 5564 5562 5561 5560 5559 5558 5557 5556
5617 5616 5615 5612 5610 5613 5611 5608 5607 5605 5603 5601 5599 5597 5596 5594 5592 5591 5589 5587 5585 5582 5580 5578 5576 5574 5572 5570 5568 5566 5565 5563 5561 5559 5558 5556 5555 5553 5552 5551 5550 5550 5548 5547
5607 5606 5604 5603 5604 5602 5599 5597 5595 5593 5592 5590 5589 5587 5585 5584 5583 5581 5579 5577 5575 5572 5570 5568 5566 5564 5563 5560 5559 5557 5555 5553 5552 5550 5549 5548 5546 5545 5544 5543 5542 5541 5540 5539
5596 5594 5592 5590 5591 5590 5588 5586 5584 5582 5581 5579 5578 5576 5575 5573 5572 5570 5569 5566 5564 5562 5560 5558 5556 5555 5553 5551 5549 5548 5546 5544 5543 5542 5540 5539 5538 5537 5535 5534 5533 5532 5531 5530
5585 5582 5579 5578 5579 5577 5577 5575 5573 5571 5569 5568 5567 5565 5564 5562 5561 5559 5558 5556 5554 5552 5550 5548 5546 5545 5543 5541 5540 5538 5537 5535 5534 5533 5532 5530 5529 5528 5527 5526 5525 5524 5522 5521
5574 5571 5567 5566 5567 5563 5564 5562 5560 5558 5557 5556 5555 5554 5553 5551 5549 5548 5546 5544 5543 5541 5539 5537 5536 5534 5533 5532 5530 5529 5528 5526 5525 5524 5523 5522 5521 5520 5519 5518 5516 5515 5514 5512
Wind_Speed
8 9 9 10 11 13 14 16 18 19 20 20 21 21 22 23 24 24 25 25 26 26 27 27 27 28 29 29 30 30 31 32 32 33 33 34 34 35 36 37 37 37 38 39
7 8 8 8 10 11 12 14 16 18 19 19 20 21 21 21 22 24 24 25 25 25 25 26 26 28 28 29 30 30 31 32 33 34 34 34 35 36 37 38 38 39 39 40
7 7 7 8 8 10 11 13 15 16 18 20 20 20 21 21 21 22 24 24 25 25 25 25 26 27 28 29 30 31 32 33 34 35 36 36 36 36 37 38 38 38 39 39
7 6 6 7 8 9 11 13 14 15 17 19 20 21 21 22 22 23 24 24 25 26 26 27 27 28 28 29 30 32 33 34 35 36 36 36 36 37 37 37 37 38 39 39
7 7 7 8 9 9 10 12 14 16 17 18 19 21 21 22 23 23 24 25 25 26 27 27 28 29 30 31 32 33 34 35 36 37 37 38 38 38 38 38 38 38 39 39
8 8 9 9 10 10 11 12 14 16 17 18 19 21 21 22 23 24 25 25 26 27 27 28 29 30 31 32 33 34 35 36 37 37 38 38 39 39 39 39 39 39 39 40
9 9 10 10 11 11 12 13 14 15 16 17 18 21 22 23 24 25 26 27 27 28 28 28 30 31 32 32 34 35 36 36 37 38 38 38 39 39 39 39 39 39 39 39
12 11 11 11 12 12 13 14 15 17 17 17 18 20 20 22 24 26 27 28 29 29 29 30 31 32 33 34 35 35 36 36 37 38 39 39 39 39 39 39 39 39 39 39
14 13 13 13 13 14 15 15 16 18 19 19 19 19 19 21 23 25 27 28 30 31 31 32 33 33 34 34 35 35 36 36 37 38 38 39 39 39 39 39 39 38 38 39
17 15 14 14 14 15 16 16 17 19 20 21 21 20 20 20 22 24 26 27 29 30 31 32 33 34 34 34 35 35 36 36 37 37 37 38 38 38 37 38 38 38 38 38
18 17 16 16 16 16 17 17 18 20 21 22 22 21 21 22 22 23 25 26 28 29 30 31 32 33 34 35 35 36 36 36 37 37 37 37 37 38 38 38 37 37 37 38
19 19 17 17 16 17 17 18 19 20 22 23 24 22 22 23 24 25 26 26 27 29 30 31 31 32 33 34 35 36 37 37 37 37 37 36 37 37 37 37 37 37 37 37
20 20 19 18 18 18 18 19 20 21 22 23 24 23 24 25 25 26 27 27 28 28 29 31 32 33 34 34 35 35 36 36 37 37 37 36 36 36 36 36 36 36 36 35
22 21 20 20 20 20 20 20 21 23 24 24 24 24 25 26 27 27 28 28 29 30 30 31 32 33 34 35 35 36 36 36 36 36 37 36 36 36 36 35 35 35 34 34
24 23 21 21 21 22 22 22 23 24 25 26 25 26 26 28 28 29 30 30 31 32 32 33 33 34 34 35 35 36 36 36 37 37 37 36 36 35 34 34 34 33 33 32
25 25 24 23 23 24 24 24 25 26 27 27 28 28 28 29 30 30 31 32 33 33 34 34 35 35 35 35 36 35 36 36 36 36 36 36 35 34 33 33 33 32 32 32
28 27 27 26 26 27 26 26 27 28 28 29 29 29 30 31 32 31 32 33 33 34 35 35 36 35 36 36 35 35 35 36 35 35 35 35 34 34 34 33 32 32 32 32
29 29 30 29 29 30 29 28 29 29 29 30 30 31 31 32 32 32 32 33 33 34 35 36 35 35 35 35 35 35 36 36 35 35 34 33 33 33 33 33 32 32 32 31
31 31 32 32 32 32 30 30 30 30 30 31 31 31 32 32 32 32 33 33 34 34 34 35 35 35 35 35 35 35 35 35 35 34 33 32 32 32 32 31 31 31 30 30
33 33 33 33 34 34 32 32 33 33 32 32 32 32 33 33 33 32 33 34 34 34 35 34 34 35 35 35 35 34 34 34 34 33 32 31 31 31 30 30 29 29 29 29
34 35 34 34 36 36 34 34 34 35 35 35 35 35 35 35 34 34 34 35 35 35 35 35 34 34 34 33 33 32 32 32 32 31 31 30 30 30 30 29 29 28 28 28
36 37 37 37 38 37 36 36 36 36 37 37 36 36 37 36 36 36 35 35 36 36 36 35 35 34 33 32 32 31 31 31 31 31 30 29 28 28 28 28 29 28 28 28
38 37 39 40 39 38 38 37 37 38 38 38 38 38 37 37 37 37 36 36 36 36 36 35 34 34 32 32 31 31 31 31 31 30 29 28 28 27 26 26 27 27 28 28
40 39 40 41 40 39 39 39 39 39 39 39 38 38 38 38 38 37 37 37 37 36 36 35 35 34 32 31 31 31 31 31 30 29 28 28 28 27 26 27 27 27 27 28
41 41 41 42 41 41 40 40 40 40 40 39 39 40 39 38 38 38 38 37 37 36 36 36 35 34 33 32 32 32 31 31 30 29 28 28 27 27 27 27 26 27 27 28
41 41 43 43 41 43 42 41 41 42 41 40 40 40 39 39 39 39 38 38 37 37 37 36 35 35 34 32 32 32 31 31 30 29 28 28 28 27 27 27 27 27 28 28
Wind_Direction
269 261 260 256 254 250 244 241 235 232 232 234 236 237 238 239 240 241 242 244 247 249 250 251 253 254 256 258 258 259 261 263 264 266 267 268 268 269 269 268 268 267 265 264
279 269 268 267 260 251 241 238 235 234 236 236 235 236 238 242 242 243 244 245 248 250 251 253 255 256 258 260 261 263 265 266 267 269 271 272 272 272 272 272 272 270 267 267
296 280 276 270 264 256 246 241 239 239 239 240 239 237 239 244 245 245 247 247 248 250 252 255 257 258 260 263 265 266 268 270 271 272 273 275 275 275 274 274 274 273 270 270
305 284 280 277 271 266 254 250 247 247 244 243 245 246 242 246 248 249 250 251 252 253 256 257 259 261 263 265 267 269 271 272 274 274 275 276 277 277 276 276 275 275 273 273
312 294 284 283 276 271 262 259 255 253 250 249 250 252 247 249 250 252 254 254 255 256 259 260 261 263 265 267 269 271 272 274 276 277 277 278 278 278 277 276 275 274 274 273
315 299 288 283 277 274 270 267 263 258 256 254 252 255 254 255 254 255 256 256 257 259 261 262 264 266 267 269 271 272 273 275 276 278 279 279 279 278 277 277 275 274 274 273
310 302 293 286 279 277 275 271 267 264 262 262 259 258 260 260 259 257 258 260 261 262 264 265 266 268 270 271 273 273 275 276 277 278 279 280 280 280 278 277 277 276 275 274
306 299 294 286 280 279 277 273 269 270 269 268 267 268 269 266 263 261 260 261 263 265 266 267 268 270 272 273 274 274 275 277 278 279 280 280 281 281 280 279 279 278 275 274
304 297 291 287 280 278 277 273 270 270 271 272 273 274 271 270 267 265 264 264 265 267 267 269 270 272 274 275 275 276 277 278 279 280 281 281 282 282 281 280 279 279 278 276
301 295 289 285 281 280 277 275 273 272 274 274 275 276 276 275 273 270 269 268 268 269 270 270 271 273 274 275 276 277 278 279 281 281 282 282 282 282 282 281 280 280 280 278
298 295 290 285 281 279 277 276 274 272 273 275 276 277 280 280 277 274 273 273 272 272 272 273 274 274 275 276 277 278 279 280 281 282 283 283 283 282 282 281 280 280 280 279
298 296 293 288 283 279 276 275 274 274 274 275 276 277 279 280 278 276 276 276 275 275 275 276 277 277 277 278 278 279 279 280 282 283 284 284 284 284 283 282 281 281 281 281
299 296 294 290 286 282 279 276 275 276 276 278 278 281 280 279 278 278 278 279 278 278 278 279 280 280 280 280 280 281 282 282 281 282 283 284 284 284 283 283 282 282 282 282
298 297 295 293 290 287 283 280 279 279 279 280 281 281 280 279 277 277 278 279 279 280 281 281 280 280 281 281 281 281 282 283 282 282 282 283 283 284 283 283 283 283 282 281
296 295 294 291 288 286 284 284 283 283 283 283 283 283 282 280 278 277 278 280 281 282 282 281 281 282 282 281 281 281 282 282 282 282 282 282 282 282 282 283 283 283 283 282
294 293 291 289 288 286 285 286 284 282 283 284 283 284 283 281 280 280 281 282 282 283 282 283 283 283 282 282 282 282 282 283 283 283 283 282 281 281 281 282 282 282 284 283
291 291 290 288 286 285 287 288 287 285 284 284 285 285 283 282 282 282 282 283 284 284 284 284 284 284 283 282 282 283 283 284 285 285 285 283 280 280 281 282 281 281 283 282
289 290 290 289 287 287 291 290 290 288 285 284 284 285 283 283 284 285 284 285 285 285 285 285 285 284 284 283 283 283 284 285 285 285 284 282 281 280 279 280 281 281 282 282
287 288 288 288 287 287 288 289 290 289 287 286 285 285 284 284 285 286 285 286 286 286 287 287 286 285 285 284 283 284 284 284 284 284 283 283 282 280 278 279 280 281 282 283
286 286 287 287 287 287 289 289 290 288 287 286 286 287 287 287 287 286 287 286 286 286 287 288 287 286 286 285 284 284 284 284 284 283 282 283 282 279 278 278 279 280 281 283
284 284 284 285 285 286 289 289 289 288 288 287 288 288 288 289 288 288 288 287 287 287 287 287 288 287 287 286 285 284 285 285 285 284 283 282 281 280 279 278 278 279 281 284
282 283 283 283 284 287 288 288 287 287 286 286 287 287 287 288 288 288 287 287 287 287 286 287 287 287 286 285 285 284 284 285 285 285 284 283 281 280 280 279 277 278 281 284
281 282 282 282 284 285 285 285 285 285 285 285 285 285 286 286 286 287 287 286 285 285 285 286 286 286 285 284 284 284 284 285 285 284 283 282 280 279 280 281 279 279 281 283
279 280 281 282 283 283 283 283 283 283 283 284 283 283 284 283 284 285 285 284 284 284 285 285 284 284 284 284 283 283 284 284 283 282 281 282 281 279 280 280 279 280 281 283
279 280 281 281 282 282 282 282 281 281 281 282 282 282 283 283 282 282 283 283 283 283 283 282 281 282 282 283 282 283 283 283 282 281 280 281 280 280 281 282 281 281 282 284
280 280 280 280 281 281 282 281 281 281 281 281 281 281 281 282 282 281 281 281 282 282 282 281 280 281 282 282 282 281 282 282 280 279 279 280 280 280 282 282 282 281 281 283